FW2168 Weather Reports


time (UTC)temp
C
wind
direction
speed
KPH
gust
KPH
rain 1hr
cm
rain 24hr
cm
rain mn
cm
humidity
%
barometer
mb
20260504234536 25 355 19.3 35.4 0.00 0.00 0.00 40 1000.8
20260504233034 25 339 20.9 30.6 0.00 0.00 0.00 39 1000.5
20260504231540 25 297 14.5 25.7 0.00 0.00 0.00 34 1000.4
20260504230034 26 264 9.7 17.7 0.00 0.00 0.00 31 1000.5
20260504224534 26 288 16.1 20.9 0.00 0.00 0.00 32 1000.2
20260504223031 26 294 11.3 20.9 0.00 0.00 0.00 36 1000.4
20260504221537 26 321 8.0 25.7 0.00 0.00 0.00 38 1000.1
20260504220029 26 260 8.0 22.5 0.00 0.00 0.00 32 1000.3
20260504214527 26 284 12.9 24.1 0.00 0.00 0.00 34 1000.2
20260504213036 26 321 16.1 27.4 0.00 0.00 0.00 34 1000.3
20260504211533 26 277 19.3 35.4 0.00 0.00 0.00 34 1000.3
20260504210024 27 323 17.7 30.6 0.00 0.00 0.00 31 1000.2
20260504204523 27 319 19.3 33.8 0.00 0.00 0.00 33 1000.3
20260504203021 27 274 11.3 24.1 0.00 0.00 0.00 34 1000.3
20260504201520 27 167 12.9 29.0 0.00 0.00 0.00 34 1000.3
20260504200019 26 303 14.5 32.2 0.00 0.00 0.00 38 1000.4
20260504194520 26 246 12.9 27.4 0.00 0.00 0.00 37 1000.7
20260504193017 26 237 14.5 25.7 0.00 0.00 0.00 38 1000.7
20260504191512 26 255 12.9 22.5 0.00 0.00 0.00 43 1000.7
20260504190017 26 308 11.3 27.4 0.00 0.00 0.00 43 1000.9
20260504184526 26 257 14.5 24.1 0.00 0.00 0.00 43 1000.9
20260504183007 26 288 11.3 29.0 0.00 0.00 0.00 43 1001.1
20260504181505 25 302 11.3 19.3 0.00 0.00 0.00 49 1001.0
20260504180003 25 276 9.7 22.5 0.00 0.00 0.00 50 1001.2
20260504174600 25 256 8.0 20.9 0.00 0.00 0.00 57 1001.2
20260504173103 25 219 6.4 22.5 0.00 0.00 0.00 47 1001.2
20260504171555 24 252 8.0 17.7 0.00 0.00 0.00 53 1001.3
20260504081501 11 163 1.6 3.2 0.00 0.00 0.00 75 1004.7
20260504044534 13 171 0.0 0.0 0.00 0.00 0.00 64 1007.2
20260504043029 13 171 0.0 0.0 0.00 0.00 0.00 62 1007.3
20260504041528 15 171 0.0 0.0 0.00 0.00 0.00 61 1007.5
20260504040027 13 171 0.0 0.0 0.00 0.00 0.00 63 1007.6
20260504034525 14 186 0.0 0.0 0.00 0.00 0.00 58 1007.9
20260504033023 14 186 4.8 6.4 0.00 0.00 0.00 59 1008.1
20260504031523 16 345 0.0 0.0 0.00 0.00 0.00 50 1008.1
20260504030024 16 345 3.2 4.8 0.00 0.00 0.00 52 1008.2
20260504024531 16 355 4.8 8.0 0.00 0.00 0.00 50 1008.1
20260504023021 17 5 4.8 6.4 0.00 0.00 0.00 50 1008.0
20260504021522 16 253 0.0 1.6 0.00 0.00 0.00 49 1008.2
20260504020019 17 253 0.0 3.2 0.00 0.00 0.00 48 1008.4
20260504014517 18 253 0.0 4.8 0.00 0.00 0.00 46 1008.4
20260504013031 18 180 1.6 3.2 0.00 0.00 0.00 47 1008.4
20260504011518 17 174 3.2 4.8 0.00 0.00 0.00 52 1008.3
20260504010016 19 273 0.0 4.8 0.00 0.00 0.00 44 1008.5
20260504004515 19 299 3.2 6.4 0.00 0.00 0.00 45 1008.8
20260504003031 20 290 3.2 6.4 0.00 0.00 0.00 43 1008.7
20260504001514 20 293 3.2 9.7 0.00 0.00 0.00 41 1008.6
20260504000012 20 251 4.8 12.9 0.00 0.00 0.00 42 1009.0